| time (UTC) | temp F | wind direction | speed MPH | gust MPH | rain 1hr in | rain 24hr in | rain mn in | humidity % | barometer mb |
| 20260503195817 | 78 | 293 | 4.0 | 7.0 | 0.00 | 0.00 | 0.00 | 50 | 1010.1 |
| 20260503194817 | 78 | 293 | 6.0 | 9.0 | 0.00 | 0.00 | 0.00 | 47 | 1010.2 |
| 20260503193817 | 78 | 270 | 7.0 | 11.0 | 0.00 | 0.00 | 0.00 | 47 | 1010.4 |
| 20260503192837 | 78 | 293 | 4.0 | 7.0 | 0.00 | 0.00 | 0.00 | 50 | 1010.4 |
| 20260503191816 | 77 | 270 | 4.0 | 6.0 | 0.00 | 0.00 | 0.00 | 50 | 1010.5 |
| 20260503190817 | 77 | 270 | 6.0 | 11.0 | 0.00 | 0.00 | 0.00 | 47 | 1010.8 |
| 20260503185817 | 77 | 270 | 5.0 | 10.0 | 0.00 | 0.00 | 0.00 | 48 | 1010.8 |
| 20260503184857 | 76 | 270 | 3.0 | 5.0 | 0.00 | 0.00 | 0.00 | 52 | 1011.0 |
| 20260503183817 | 76 | 293 | 8.0 | 14.0 | 0.00 | 0.00 | 0.00 | 50 | 1011.1 |
| 20260503182817 | 76 | 293 | 7.0 | 9.0 | 0.00 | 0.00 | 0.00 | 51 | 1011.0 |
| 20260503181817 | 76 | 270 | 8.0 | 12.0 | 0.00 | 0.00 | 0.00 | 51 | 1011.2 |
| 20260503180817 | 76 | 293 | 7.0 | 10.0 | 0.00 | 0.00 | 0.00 | 51 | 1011.3 |
| 20260503175817 | 75 | 248 | 3.0 | 5.0 | 0.00 | 0.00 | 0.00 | 55 | 1011.5 |
| 20260503174837 | 74 | 203 | 7.0 | 14.0 | 0.00 | 0.00 | 0.00 | 55 | 1011.7 |
| 20260503173837 | 74 | 225 | 12.0 | 18.0 | 0.00 | 0.00 | 0.00 | 53 | 1012.0 |
| 20260503172837 | 73 | 293 | 8.0 | 12.0 | 0.00 | 0.00 | 0.00 | 53 | 1012.0 |
| 20260503171837 | 73 | 270 | 8.0 | 15.0 | 0.00 | 0.00 | 0.00 | 53 | 1012.3 |
| 20260503170817 | 72 | 293 | 6.0 | 10.0 | 0.00 | 0.00 | 0.00 | 54 | 1012.3 |
| 20260503150817 | 64 | 293 | 6.0 | 10.0 | 0.00 | 0.00 | 0.00 | 59 | 1013.5 |
| 20260503130817 | 54 | 203 | 8.0 | 11.0 | 0.00 | 0.00 | 0.00 | 65 | 1014.7 |
| 20260503081018 | 45 | 203 | 2.0 | 2.0 | 0.00 | 0.00 | 0.00 | 77 | 1015.9 |
| 20260503072017 | 45 | 158 | 1.0 | 1.0 | 0.00 | 0.00 | 0.00 | 77 | 1016.2 |
| 20260503071018 | 45 | 0.0 | 1.0 | 0.00 | 0.00 | 0.00 | 77 | 1016.3 | |
| 20260503055016 | 45 | 180 | 1.0 | 2.0 | 0.00 | 0.00 | 0.00 | 78 | 1016.9 |
| 20260503054016 | 44 | 0.0 | 0.0 | 0.00 | 0.00 | 0.00 | 79 | 1017.1 | |
| 20260503053016 | 44 | 0.0 | 1.0 | 0.00 | 0.00 | 0.00 | 80 | 1017.1 | |
| 20260503052016 | 44 | 0.0 | 0.0 | 0.00 | 0.00 | 0.00 | 79 | 1017.1 | |
| 20260503051016 | 44 | 0.0 | 0.0 | 0.00 | 0.00 | 0.00 | 79 | 1017.2 | |
| 20260503050016 | 44 | 0.0 | 0.0 | 0.00 | 0.00 | 0.00 | 80 | 1017.3 | |
| 20260503045017 | 43 | 0.0 | 0.0 | 0.00 | 0.00 | 0.00 | 80 | 1017.2 | |
| 20260503044017 | 43 | 0.0 | 0.0 | 0.00 | 0.00 | 0.00 | 83 | 1017.3 | |
| 20260503043017 | 42 | 0.0 | 0.0 | 0.00 | 0.00 | 0.00 | 84 | 1017.4 | |
| 20260503042017 | 42 | 0.0 | 0.0 | 0.00 | 0.00 | 0.00 | 83 | 1017.4 | |
| 20260503041017 | 42 | 0.0 | 0.0 | 0.00 | 0.00 | 0.00 | 83 | 1017.5 | |
| 20260503040017 | 42 | 0.0 | 0.0 | 0.00 | 0.00 | 0.00 | 82 | 1017.5 | |
| 20260503035017 | 42 | 0.0 | 0.0 | 0.00 | 0.00 | 0.00 | 80 | 1017.6 | |
| 20260503034017 | 42 | 0.0 | 0.0 | 0.00 | 0.00 | 0.00 | 78 | 1017.7 | |
| 20260503033018 | 43 | 0.0 | 0.0 | 0.00 | 0.00 | 0.00 | 77 | 1017.8 | |
| 20260503032017 | 43 | 0.0 | 0.0 | 0.00 | 0.00 | 0.00 | 75 | 1017.8 | |
| 20260503031017 | 44 | 0.0 | 0.0 | 0.00 | 0.00 | 0.00 | 75 | 1017.9 | |
| 20260503030017 | 44 | 0.0 | 0.0 | 0.00 | 0.00 | 0.00 | 74 | 1017.9 | |
| 20260503025037 | 44 | 0.0 | 0.0 | 0.00 | 0.00 | 0.00 | 72 | 1017.9 | |
| 20260503024017 | 45 | 0.0 | 0.0 | 0.00 | 0.00 | 0.00 | 71 | 1017.8 | |
| 20260503023017 | 45 | 0.0 | 0.0 | 0.00 | 0.00 | 0.00 | 68 | 1017.7 | |
| 20260503022017 | 46 | 0.0 | 0.0 | 0.00 | 0.00 | 0.00 | 66 | 1017.9 | |
| 20260503021017 | 48 | 0.0 | 0.0 | 0.00 | 0.00 | 0.00 | 64 | 1017.7 | |
| 20260503020017 | 49 | 0.0 | 0.0 | 0.00 | 0.00 | 0.00 | 62 | 1017.6 | |
| 20260503015037 | 51 | 0.0 | 0.0 | 0.00 | 0.00 | 0.00 | 63 | 1017.6 | |
| 20260503014058 | 52 | 0.0 | 0.0 | 0.00 | 0.00 | 0.00 | 59 | 1017.6 | |
| 20260503013717 | 52 | 0.0 | 0.0 | 0.00 | 0.00 | 0.00 | 59 | 1017.5 | |
| 20260503012717 | 54 | 0.0 | 0.0 | 0.00 | 0.00 | 0.00 | 56 | 1017.5 | |
| 20260503011717 | 56 | 0.0 | 0.0 | 0.00 | 0.00 | 0.00 | 46 | 1017.4 | |
| 20260503010717 | 58 | 0.0 | 0.0 | 0.00 | 0.00 | 0.00 | 45 | 1017.5 | |
| 20260503005737 | 60 | 0.0 | 0.0 | 0.00 | 0.00 | 0.00 | 44 | 1017.6 | |
| 20260503004717 | 61 | 0.0 | 0.0 | 0.00 | 0.00 | 0.00 | 41 | 1017.7 | |
| 20260503003737 | 63 | 0.0 | 1.0 | 0.00 | 0.00 | 0.00 | 38 | 1017.7 | |
| 20260503002717 | 63 | 293 | 1.0 | 2.0 | 0.00 | 0.00 | 0.00 | 38 | 1017.8 |
| 20260503001737 | 64 | 0.0 | 0.0 | 0.00 | 0.00 | 0.00 | 37 | 1017.7 | |
| 20260503000717 | 64 | 293 | 1.0 | 2.0 | 0.00 | 0.00 | 0.00 | 39 | 1017.7 |
| 20260502235717 | 64 | 248 | 1.0 | 2.0 | 0.00 | 0.00 | 0.00 | 38 | 1017.7 |
| 20260502234737 | 65 | 293 | 1.0 | 3.0 | 0.00 | 0.00 | 0.00 | 37 | 1017.8 |
| 20260502233717 | 64 | 225 | 1.0 | 4.0 | 0.00 | 0.00 | 0.00 | 36 | 1017.7 |
| 20260502232717 | 64 | 293 | 1.0 | 2.0 | 0.00 | 0.00 | 0.00 | 39 | 1017.8 |
| 20260502231717 | 64 | 0.0 | 1.0 | 0.00 | 0.00 | 0.00 | 37 | 1017.8 | |
| 20260502230737 | 65 | 293 | 2.0 | 3.0 | 0.00 | 0.00 | 0.00 | 39 | 1018.0 |
| 20260502225717 | 67 | 0.0 | 1.0 | 0.00 | 0.00 | 0.00 | 40 | 1018.1 | |
| 20260502224717 | 67 | 0.0 | 1.0 | 0.00 | 0.00 | 0.00 | 38 | 1018.1 | |
| 20260502223737 | 67 | 315 | 1.0 | 2.0 | 0.00 | 0.00 | 0.00 | 37 | 1018.2 |
| 20260502222717 | 66 | 315 | 1.0 | 2.0 | 0.00 | 0.00 | 0.00 | 40 | 1018.2 |
| 20260502221737 | 65 | 270 | 2.0 | 5.0 | 0.00 | 0.00 | 0.00 | 37 | 1018.2 |
| 20260502220717 | 65 | 0.0 | 1.0 | 0.00 | 0.00 | 0.00 | 43 | 1018.3 | |
| 20260502215717 | 65 | 0.0 | 1.0 | 0.00 | 0.00 | 0.00 | 43 | 1018.4 | |
| 20260502214717 | 64 | 0.0 | 1.0 | 0.00 | 0.00 | 0.00 | 37 | 1018.4 | |
| 20260502213717 | 65 | 248 | 3.0 | 4.0 | 0.00 | 0.00 | 0.00 | 37 | 1018.5 |
| 20260502212717 | 64 | 0.0 | 1.0 | 0.00 | 0.00 | 0.00 | 39 | 1018.6 | |
| 20260502211717 | 63 | 0.0 | 1.0 | 0.00 | 0.00 | 0.00 | 43 | 1018.7 | |
| 20260502210717 | 64 | 23 | 3.0 | 4.0 | 0.00 | 0.00 | 0.00 | 41 | 1018.7 |
| 20260502205717 | 64 | 68 | 1.0 | 2.0 | 0.00 | 0.00 | 0.00 | 38 | 1018.9 |
| 20260502204717 | 63 | 0.0 | 1.0 | 0.00 | 0.00 | 0.00 | 41 | 1018.9 | |
| 20260502203717 | 63 | 315 | 1.0 | 3.0 | 0.00 | 0.00 | 0.00 | 46 | 1019.0 |
| 20260502202717 | 63 | 338 | 2.0 | 3.0 | 0.00 | 0.00 | 0.00 | 47 | 1019.1 |
| 20260502201717 | 63 | 23 | 4.0 | 5.0 | 0.00 | 0.00 | 0.00 | 45 | 1019.2 |
| 20260502200717 | 62 | 45 | 3.0 | 4.0 | 0.00 | 0.00 | 0.00 | 45 | 1019.3 |